CTV955 WARR-WIMM

Flight info

Callsign CTV955
Flight time N/A
Altitude 36000
Route LASEM T2 KALUT T6 CKG T10 AKPER
Aircraft A320/M-SDE3FGHIRWY/LB1

Departure

Time N/A
Airport Juanda International Airport (WARR)

Arrival

Time 2026-05-05 13:08
Airport Kualanamu International Airport (WIMM)
Time Latitude Longitude Altitude Speed Heading
2026-05-05 11:45 -3.62233 104.61299 35853 ft 460 kts 317°
2026-05-05 11:45 -3.59895 104.59111 35852 ft 460 kts 317°
2026-05-05 11:46 -3.55212 104.54722 35853 ft 461 kts 317°
2026-05-05 11:46 -3.50520 104.50342 35857 ft 461 kts 317°
2026-05-05 11:47 -3.45833 104.45970 35861 ft 461 kts 317°
2026-05-05 11:47 -3.41148 104.41592 35862 ft 461 kts 317°
2026-05-05 11:48 -3.34116 104.35028 35865 ft 461 kts 317°
2026-05-05 11:48 -3.29439 104.30662 35866 ft 461 kts 317°
2026-05-05 11:49 -3.24752 104.26277 35865 ft 461 kts 317°
2026-05-05 11:49 -3.20057 104.21887 35866 ft 461 kts 317°
2026-05-05 11:50 -3.15372 104.17521 35865 ft 461 kts 317°
2026-05-05 11:50 -3.10682 104.13143 35866 ft 461 kts 317°
2026-05-05 11:51 -3.06016 104.08788 35866 ft 461 kts 317°
2026-05-05 11:51 -3.01332 104.04414 35868 ft 461 kts 317°
2026-05-05 11:52 -2.96635 104.00035 35864 ft 462 kts 317°
2026-05-05 11:52 -2.91926 103.95644 35862 ft 462 kts 317°
2026-05-05 11:53 -2.87224 103.91256 35863 ft 462 kts 317°
2026-05-05 11:53 -2.82515 103.86863 35865 ft 462 kts 317°
2026-05-05 11:54 -2.77807 103.82473 35862 ft 463 kts 317°
2026-05-05 11:54 -2.73092 103.78075 35860 ft 463 kts 317°
2026-05-05 11:55 -2.68378 103.73680 35859 ft 463 kts 318°
2026-05-05 11:55 -2.65223 103.70733 35860 ft 463 kts 317°
2026-05-05 11:56 -2.54375 103.60631 35864 ft 464 kts 318°
2026-05-05 11:57 -2.52288 103.58702 35986 ft 462 kts 318°
2026-05-05 11:57 -2.49922 103.56517 35836 ft 463 kts 318°
2026-05-05 11:57 -2.45211 103.52112 35861 ft 464 kts 317°
2026-05-05 11:58 -2.40507 103.47700 35859 ft 464 kts 317°
2026-05-05 11:58 -2.35792 103.43294 35860 ft 464 kts 318°
2026-05-05 11:59 -2.31071 103.38897 35859 ft 464 kts 318°
2026-05-05 11:59 -2.26354 103.34493 35861 ft 464 kts 317°
2026-05-05 12:00 -2.21632 103.30082 35859 ft 464 kts 317°
2026-05-05 12:00 -2.16915 103.25681 35863 ft 464 kts 317°
2026-05-05 12:01 -2.12216 103.21298 35863 ft 465 kts 317°
2026-05-05 12:01 -2.07487 103.16880 35866 ft 464 kts 317°
2026-05-05 12:02 -2.02767 103.12472 35866 ft 464 kts 317°
2026-05-05 12:02 -1.98044 103.08063 35867 ft 465 kts 317°
2026-05-05 12:03 -1.93323 103.03649 35871 ft 465 kts 317°
2026-05-05 12:03 -1.88591 102.99228 35871 ft 465 kts 317°
2026-05-05 12:04 -1.83866 102.94820 35870 ft 465 kts 317°
2026-05-05 12:04 -1.79141 102.90417 35872 ft 464 kts 317°
2026-05-05 12:05 -1.74420 102.86004 35870 ft 465 kts 317°
2026-05-05 12:05 -1.69696 102.81589 35874 ft 465 kts 317°
2026-05-05 12:06 -1.64975 102.77182 35876 ft 465 kts 317°
2026-05-05 12:06 -1.60280 102.72805 35874 ft 464 kts 317°
2026-05-05 12:07 -1.55550 102.68395 35871 ft 464 kts 317°
2026-05-05 12:07 -1.50836 102.63989 35866 ft 464 kts 317°
2026-05-05 12:08 -1.46112 102.59576 35862 ft 464 kts 317°
2026-05-05 12:08 -1.41392 102.55177 35863 ft 465 kts 317°
2026-05-05 12:09 -1.36671 102.50762 35860 ft 465 kts 317°
2026-05-05 12:09 -1.31939 102.46333 35862 ft 465 kts 317°
2026-05-05 12:10 -1.27204 102.41913 35865 ft 466 kts 317°
2026-05-05 12:10 -1.22472 102.37500 35864 ft 466 kts 317°
2026-05-05 12:11 -1.17744 102.33092 35862 ft 465 kts 317°
2026-05-05 12:11 -1.13006 102.28663 35862 ft 465 kts 317°
2026-05-05 12:12 -1.08281 102.24243 35859 ft 465 kts 317°
2026-05-05 12:12 -1.03556 102.19830 35858 ft 465 kts 317°
2026-05-05 12:13 -0.98829 102.15412 35858 ft 465 kts 317°
2026-05-05 12:13 -0.94131 102.11032 35856 ft 465 kts 317°
2026-05-05 12:14 -0.89405 102.06616 35854 ft 465 kts 317°
2026-05-05 12:14 -0.84680 102.02203 35852 ft 465 kts 318°
2026-05-05 12:15 -0.79947 101.97799 35846 ft 465 kts 317°
2026-05-05 12:15 -0.75219 101.93388 35845 ft 465 kts 317°
2026-05-05 12:16 -0.70485 101.88976 35838 ft 466 kts 317°
2026-05-05 12:16 -0.65750 101.84556 35837 ft 466 kts 317°
2026-05-05 12:17 -0.61013 101.80137 35834 ft 466 kts 317°
2026-05-05 12:17 -0.56271 101.75711 35831 ft 466 kts 317°
2026-05-05 12:18 -0.51527 101.71278 35825 ft 467 kts 317°
2026-05-05 12:18 -0.46779 101.66849 35824 ft 467 kts 318°
2026-05-05 12:19 -0.42029 101.62417 35829 ft 467 kts 317°
2026-05-05 12:19 -0.37278 101.57975 35830 ft 467 kts 317°
2026-05-05 12:20 -0.32559 101.53573 35831 ft 467 kts 318°
2026-05-05 12:20 -0.27831 101.49168 35831 ft 467 kts 318°
2026-05-05 12:21 -0.23080 101.44736 35830 ft 467 kts 317°
2026-05-05 12:21 -0.18333 101.40312 35832 ft 467 kts 317°
2026-05-05 12:22 -0.13583 101.35877 35828 ft 467 kts 317°
2026-05-05 12:22 -0.08841 101.31446 35825 ft 466 kts 317°
2026-05-05 12:23 -0.04100 101.27017 35822 ft 466 kts 317°
2026-05-05 12:23 0.00638 101.22597 35820 ft 466 kts 317°
2026-05-05 12:24 0.05382 101.18171 35814 ft 466 kts 317°
2026-05-05 12:24 0.10131 101.13745 35816 ft 467 kts 318°
2026-05-05 12:25 0.14882 101.09316 35817 ft 467 kts 317°
2026-05-05 12:25 0.19622 101.04882 35820 ft 467 kts 318°
2026-05-05 12:26 0.24360 101.00458 35820 ft 466 kts 318°
2026-05-05 12:26 0.29102 100.96037 35821 ft 466 kts 318°
2026-05-05 12:27 0.33843 100.91616 35823 ft 466 kts 318°
2026-05-05 12:27 0.38587 100.87188 35824 ft 466 kts 318°
2026-05-05 12:28 0.43318 100.82773 35826 ft 466 kts 317°
2026-05-05 12:28 0.48022 100.78374 35829 ft 465 kts 317°
2026-05-05 12:29 0.52755 100.73963 35825 ft 465 kts 318°
2026-05-05 12:29 0.57484 100.69563 35826 ft 464 kts 318°
2026-05-05 12:30 0.62210 100.65154 35824 ft 464 kts 317°
2026-05-05 12:30 0.66921 100.60753 35821 ft 464 kts 317°
2026-05-05 12:31 0.71629 100.56352 35824 ft 464 kts 317°
2026-05-05 12:31 0.76344 100.51945 35826 ft 464 kts 318°
2026-05-05 12:32 0.80261 100.48293 35830 ft 464 kts 318°
2026-05-05 12:32 0.84972 100.43900 35830 ft 463 kts 318°
2026-05-05 12:33 0.89691 100.39492 35834 ft 463 kts 317°
2026-05-05 12:33 0.94398 100.35096 35833 ft 463 kts 318°
2026-05-05 12:34 0.99106 100.30707 35831 ft 463 kts 318°
2026-05-05 12:34 1.03811 100.26312 35833 ft 463 kts 317°
2026-05-05 12:35 1.08506 100.21916 35838 ft 463 kts 317°
2026-05-05 12:35 1.13212 100.17518 35839 ft 463 kts 317°
2026-05-05 12:36 1.17919 100.13127 35842 ft 463 kts 318°
2026-05-05 12:36 1.22632 100.08728 35848 ft 463 kts 318°
2026-05-05 12:37 1.27310 100.04364 35848 ft 463 kts 318°
2026-05-05 12:37 1.32017 99.99963 35854 ft 463 kts 317°
2026-05-05 12:38 1.36720 99.95566 35859 ft 463 kts 318°
2026-05-05 12:38 1.41425 99.91180 35857 ft 462 kts 318°
2026-05-05 12:39 1.46131 99.86787 35865 ft 463 kts 318°
2026-05-05 12:39 1.50839 99.82384 35839 ft 465 kts 318°
2026-05-05 12:40 1.55572 99.77961 35836 ft 468 kts 318°
2026-05-05 12:40 1.60331 99.73507 35853 ft 469 kts 318°
2026-05-05 12:41 1.65114 99.69039 35870 ft 471 kts 318°
2026-05-05 12:41 1.69875 99.64600 35877 ft 471 kts 318°
2026-05-05 12:42 1.74677 99.60121 35892 ft 472 kts 318°
2026-05-05 12:42 1.79917 99.56244 35903 ft 469 kts 334°
2026-05-05 12:43 1.85737 99.53265 35918 ft 470 kts 334°
2026-05-05 12:43 1.91550 99.50268 35925 ft 470 kts 333°
2026-05-05 12:44 1.97351 99.47264 35927 ft 470 kts 333°
2026-05-05 12:44 2.03166 99.44263 35933 ft 470 kts 333°
2026-05-05 12:45 2.08989 99.41266 35934 ft 470 kts 333°
2026-05-05 12:45 2.11867 99.39783 35816 ft 460 kts 333°
2026-05-05 12:45 2.14685 99.38328 35139 ft 451 kts 333°
2026-05-05 12:46 2.17452 99.36898 34390 ft 445 kts 334°
2026-05-05 12:46 2.20199 99.35482 33607 ft 440 kts 334°
2026-05-05 12:46 2.22904 99.34090 32782 ft 435 kts 334°
2026-05-05 12:46 2.25585 99.32710 31994 ft 430 kts 334°
2026-05-05 12:47 2.28234 99.31346 31226 ft 425 kts 334°
2026-05-05 12:47 2.30813 99.30018 30493 ft 421 kts 334°
2026-05-05 12:47 2.33406 99.28682 29730 ft 417 kts 334°
2026-05-05 12:47 2.35962 99.27362 28886 ft 412 kts 334°
2026-05-05 12:48 2.38489 99.26054 28107 ft 407 kts 334°
2026-05-05 12:48 2.40990 99.24758 27339 ft 402 kts 334°
2026-05-05 12:48 2.43516 99.23616 26580 ft 395 kts 342°
2026-05-05 12:48 2.46142 99.22871 25852 ft 389 kts 351°
2026-05-05 12:49 2.48789 99.22366 25135 ft 386 kts 351°
2026-05-05 12:49 2.51411 99.21856 24443 ft 382 kts 351°
2026-05-05 12:49 2.53996 99.21345 23771 ft 378 kts 350°
2026-05-05 12:49 2.56576 99.20834 23018 ft 375 kts 350°
2026-05-05 12:50 2.59120 99.20329 22225 ft 371 kts 350°
2026-05-05 12:50 2.61694 99.19819 20961 ft 382 kts 350°
2026-05-05 12:50 2.64335 99.19296 19794 ft 391 kts 350°
2026-05-05 12:50 2.67005 99.18769 18912 ft 389 kts 351°
2026-05-05 12:51 2.69650 99.18248 18157 ft 386 kts 351°
2026-05-05 12:51 2.72280 99.17732 17620 ft 385 kts 351°
2026-05-05 12:51 2.74896 99.17220 17141 ft 383 kts 351°
2026-05-05 12:51 2.77504 99.16708 16661 ft 380 kts 350°
2026-05-05 12:52 2.80044 99.16208 16377 ft 360 kts 350°
2026-05-05 12:52 2.82429 99.15737 16154 ft 341 kts 351°
2026-05-05 12:52 2.84724 99.15286 15661 ft 333 kts 350°
2026-05-05 12:52 2.86980 99.14845 15099 ft 328 kts 350°
2026-05-05 12:53 2.89212 99.14408 14559 ft 324 kts 350°
2026-05-05 12:53 2.91407 99.13975 14099 ft 319 kts 350°
2026-05-05 12:53 2.93571 99.13548 13689 ft 316 kts 350°
2026-05-05 12:53 2.95710 99.13102 13259 ft 314 kts 345°
2026-05-05 12:54 2.99519 99.11015 12621 ft 315 kts 318°
2026-05-05 12:54 3.01082 99.09474 12213 ft 316 kts 316°
2026-05-05 12:54 3.02634 99.07923 11890 ft 313 kts 316°
2026-05-05 12:55 3.04180 99.06381 11527 ft 313 kts 315°
2026-05-05 12:55 3.05712 99.04854 11221 ft 310 kts 316°
2026-05-05 12:55 3.07217 99.03356 10879 ft 309 kts 316°
2026-05-05 12:55 3.08732 99.01848 10556 ft 307 kts 315°
2026-05-05 12:56 3.10233 99.00354 10032 ft 303 kts 316°
2026-05-05 12:56 3.11722 98.98872 9416 ft 300 kts 316°
2026-05-05 12:56 3.13183 98.97417 8919 ft 294 kts 316°
2026-05-05 12:56 3.14632 98.95975 8522 ft 292 kts 316°
2026-05-05 12:57 3.16069 98.94546 8145 ft 290 kts 316°
2026-05-05 12:57 3.17497 98.93126 7765 ft 290 kts 316°
2026-05-05 12:57 3.18923 98.91706 7372 ft 289 kts 315°
2026-05-05 12:57 3.20342 98.90292 6992 ft 288 kts 315°
2026-05-05 12:58 3.21759 98.88881 6620 ft 286 kts 315°
2026-05-05 12:58 3.23161 98.87485 6242 ft 285 kts 315°
2026-05-05 12:58 3.24561 98.86090 5884 ft 282 kts 315°
2026-05-05 12:58 3.25944 98.84711 5531 ft 279 kts 315°
2026-05-05 12:59 3.27320 98.83339 5150 ft 278 kts 315°
2026-05-05 12:59 3.28692 98.81975 4751 ft 277 kts 315°
2026-05-05 12:59 3.30051 98.80625 4356 ft 275 kts 315°
2026-05-05 13:00 3.32747 98.77981 3904 ft 269 kts 316°
2026-05-05 13:00 3.34104 98.76686 3797 ft 268 kts 316°
2026-05-05 13:01 3.38162 98.72832 3479 ft 267 kts 316°
2026-05-05 13:01 3.39492 98.71568 3380 ft 267 kts 316°
2026-05-05 13:01 3.40790 98.70331 3276 ft 267 kts 316°
2026-05-05 13:01 3.42174 98.69103 3161 ft 261 kts 327°
2026-05-05 13:02 3.43839 98.68578 3050 ft 248 kts 360°
2026-05-05 13:02 3.45452 98.68992 2944 ft 236 kts 31°
2026-05-05 13:02 3.46665 98.70047 2836 ft 227 kts 45°
2026-05-05 13:02 3.47757 98.71147 2726 ft 218 kts 45°
2026-05-05 13:03 3.48804 98.72200 2641 ft 208 kts 45°
2026-05-05 13:03 3.49638 98.73039 2560 ft 196 kts 44°
2026-05-05 13:03 3.50571 98.73972 2451 ft 184 kts 44°
2026-05-05 13:03 3.51447 98.74841 2369 ft 169 kts 44°
2026-05-05 13:04 3.52259 98.75645 2316 ft 161 kts 44°
2026-05-05 13:04 3.53043 98.76420 2252 ft 154 kts 44°
2026-05-05 13:04 3.53802 98.77171 2165 ft 151 kts 43°
2026-05-05 13:04 3.54549 98.77903 2058 ft 150 kts 42°
2026-05-05 13:05 3.55300 98.78620 1895 ft 149 kts 43°
2026-05-05 13:05 3.56037 98.79340 1709 ft 148 kts 43°
2026-05-05 13:05 3.56767 98.80062 1524 ft 147 kts 43°
2026-05-05 13:05 3.57493 98.80782 1336 ft 146 kts 43°
2026-05-05 13:06 3.58214 98.81499 1147 ft 146 kts 44°
2026-05-05 13:06 3.58921 98.82203 979 ft 145 kts 43°
2026-05-05 13:06 3.59634 98.82913 815 ft 145 kts 44°
2026-05-05 13:06 3.60343 98.83621 633 ft 143 kts 44°
2026-05-05 13:07 3.61051 98.84325 414 ft 142 kts 44°
2026-05-05 13:07 3.61740 98.85025 271 ft 141 kts 45°
2026-05-05 13:07 3.62438 98.85719 106 ft 140 kts 43°
2026-05-05 13:07 3.63103 98.86383 43 ft 125 kts 44°
2026-05-05 13:08 3.63634 98.86907 37 ft 84 kts 44°
2026-05-05 13:08 3.63926 98.87196 37 ft 30 kts 44°
2026-05-05 13:08 3.64050 98.87344 35 ft 26 kts 59°
2026-05-05 13:08 3.64105 98.87484 33 ft 20 kts 77°
2026-05-05 13:09 3.64142 98.87615 38 ft 20 kts 72°
2026-05-05 13:09 3.64215 98.87737 38 ft 21 kts 50°
2026-05-05 13:09 3.64320 98.87846 39 ft 23 kts 45°
2026-05-05 13:09 3.64432 98.87963 39 ft 23 kts 54°
2026-05-05 13:10 3.64416 98.87995 39 ft 4 kts 143°
2026-05-05 13:10 3.64381 98.88027 40 ft 9 kts 136°
2026-05-05 13:10 3.64322 98.88085 40 ft 14 kts 134°
2026-05-05 13:10 3.64238 98.88168 40 ft 19 kts 135°
2026-05-05 13:11 3.64155 98.88191 40 ft 12 kts 225°
2026-05-05 13:11 3.64098 98.88135 40 ft 11 kts 224°
2026-05-05 13:11 3.64049 98.88087 40 ft 9 kts 225°
2026-05-05 13:11 3.64006 98.88044 40 ft 9 kts 225°
2026-05-05 13:12 3.63954 98.87991 40 ft 12 kts 226°
2026-05-05 13:12 3.63886 98.87966 40 ft 7 kts 155°
2026-05-05 13:12 3.63845 98.87999 40 ft 8 kts 132°
2026-05-05 13:12 3.63802 98.87995 40 ft 8 kts 235°
2026-05-05 13:13 3.63783 98.87974 40 ft 0 kts 225°
2026-05-05 13:13 3.63779 98.87970 40 ft 3 kts 225°
2026-05-05 13:13 3.63763 98.87955 40 ft 4 kts 224°
2026-05-05 13:14 3.63762 98.87953 40 ft 0 kts 224°